Time,TemperatureF,DewpointF,PressureIn,WindDirection,WindDirectionDegrees,WindSpeedMPH,WindSpeedGustMPH,Humidity,HourlyPrecipIn,Conditions,Clouds,dailyrainin,SoftwareType,DateUTC
2013-03-15 00:12:00,27.3,24.0,29.97,WNW,292,3.7,-999.0,87,-99.99,,,0.00,Acu-Link.com,2013-03-15 04:12:00,
2013-03-15 00:29:00,27.0,24.2,29.97,West,270,4.7,-999.0,89,-99.99,,,0.00,Acu-Link.com,2013-03-15 04:29:00,
2013-03-15 00:44:00,26.8,24.0,29.96,WNW,292,3.2,-999.0,89,-99.99,,,0.00,Acu-Link.com,2013-03-15 04:44:00,
2013-03-15 01:05:00,26.1,24.4,29.96,SSW,202,2.7,-999.0,93,-99.99,,,0.00,Acu-Link.com,2013-03-15 05:05:00,
2013-03-15 01:22:00,25.7,25.2,29.95,ENE,67,0.0,-999.0,98,-99.99,,,0.00,Acu-Link.com,2013-03-15 05:22:00,
2013-03-15 01:38:00,26.1,25.6,29.95,East,90,3.2,-999.0,98,-99.99,,,0.00,Acu-Link.com,2013-03-15 05:38:00,
2013-03-15 01:54:00,25.0,24.5,29.95,East,90,2.7,-999.0,98,-99.99,,,0.00,Acu-Link.com,2013-03-15 05:54:00,
2013-03-15 02:33:00,23.9,23.4,29.95,SSE,157,0.0,-999.0,98,-99.99,,,0.00,Acu-Link.com,2013-03-15 06:33:00,
2013-03-15 03:08:00,21.9,21.4,29.94,NE,45,0.0,-999.0,98,-99.99,,,0.00,Acu-Link.com,2013-03-15 07:08:00,
2013-03-15 03:25:00,21.7,21.2,29.93,SSE,157,0.0,-999.0,98,-99.99,,,0.00,Acu-Link.com,2013-03-15 07:25:00,
2013-03-15 03:41:00,21.6,21.1,29.92,West,270,1.7,-999.0,98,-99.99,,,0.00,Acu-Link.com,2013-03-15 07:41:00,
2013-03-15 03:58:00,21.2,20.7,29.93,NNW,337,0.0,-999.0,98,-99.99,,,0.00,Acu-Link.com,2013-03-15 07:58:00,
2013-03-15 04:14:00,22.1,21.6,29.92,West,270,3.7,-999.0,98,-99.99,,,0.00,Acu-Link.com,2013-03-15 08:14:00,
2013-03-15 04:40:00,24.1,23.6,29.90,NW,315,3.2,-999.0,98,-99.99,,,0.00,Acu-Link.com,2013-03-15 08:40:00,
2013-03-15 05:10:00,26.4,25.9,29.90,NNW,337,11.4,-999.0,98,-99.99,,,0.00,Acu-Link.com,2013-03-15 09:10:00,
2013-03-15 05:28:00,28.9,28.4,29.89,WSW,247,3.7,-999.0,98,-99.99,,,0.00,Acu-Link.com,2013-03-15 09:28:00,
2013-03-15 05:47:00,29.1,28.6,29.90,West,270,4.2,-999.0,98,-99.99,,,0.00,Acu-Link.com,2013-03-15 09:47:00,
2013-03-15 06:06:00,29.3,28.8,29.90,WSW,247,8.3,-999.0,98,-99.99,,,0.00,Acu-Link.com,2013-03-15 10:06:00,
2013-03-15 06:23:00,29.5,29.0,29.89,SW,225,3.7,-999.0,98,-99.99,,,0.00,Acu-Link.com,2013-03-15 10:23:00,
2013-03-15 06:44:00,29.8,29.3,29.89,West,270,9.4,-999.0,98,-99.99,,,0.00,Acu-Link.com,2013-03-15 10:44:00,
2013-03-15 07:04:00,30.2,29.7,29.89,NW,315,7.3,-999.0,98,-99.99,,,0.00,Acu-Link.com,2013-03-15 11:04:00,
2013-03-15 07:23:00,30.6,28.8,29.88,West,270,6.8,-999.0,93,-99.99,,,0.00,Acu-Link.com,2013-03-15 11:23:00,
2013-03-15 07:41:00,30.7,28.9,29.89,WNW,292,8.9,-999.0,93,-99.99,,,0.00,Acu-Link.com,2013-03-15 11:41:00,
2013-03-15 08:02:00,31.3,28.7,29.87,West,270,7.8,-999.0,90,-99.99,,,0.00,Acu-Link.com,2013-03-15 12:02:00,
2013-03-15 08:22:00,31.8,28.1,29.86,WNW,292,5.8,-999.0,86,-99.99,,,0.00,Acu-Link.com,2013-03-15 12:22:00,
2013-03-15 08:37:00,32.4,27.5,29.86,WNW,292,7.8,-999.0,82,-99.99,,,0.00,Acu-Link.com,2013-03-15 12:37:00,
2013-03-15 08:53:00,32.5,26.7,29.84,SW,225,8.3,-999.0,79,-99.99,,,0.00,Acu-Link.com,2013-03-15 12:53:00,
2013-03-15 09:12:00,33.3,26.2,29.83,West,270,9.4,-999.0,75,-99.99,,,0.00,Acu-Link.com,2013-03-15 13:12:00,
2013-03-15 09:49:00,34.3,25.9,29.83,SW,225,9.4,-999.0,71,-99.99,,,0.00,Acu-Link.com,2013-03-15 13:49:00,
2013-03-15 10:08:00,35.2,26.4,29.81,West,270,8.9,-999.0,70,-99.99,,,0.00,Acu-Link.com,2013-03-15 14:08:00,
2013-03-15 10:27:00,36.7,27.9,29.81,West,270,9.4,-999.0,70,-99.99,,,0.00,Acu-Link.com,2013-03-15 14:27:00,
2013-03-15 10:44:00,37.9,28.7,29.82,West,270,13.0,-999.0,69,-99.99,,,0.00,Acu-Link.com,2013-03-15 14:44:00,
2013-03-15 11:01:00,38.7,29.8,29.80,South,180,12.5,-999.0,70,-99.99,,,0.00,Acu-Link.com,2013-03-15 15:01:00,
2013-03-15 11:19:00,39.4,31.5,29.80,West,270,9.4,-999.0,73,-99.99,,,0.00,Acu-Link.com,2013-03-15 15:19:00,
2013-03-15 11:38:00,40.5,32.9,29.79,West,270,11.4,-999.0,74,-99.99,,,0.00,Acu-Link.com,2013-03-15 15:38:00,
2013-03-15 11:55:00,41.5,34.2,29.79,SW,225,9.4,-999.0,75,-99.99,,,0.00,Acu-Link.com,2013-03-15 15:55:00,
2013-03-15 12:12:00,41.9,34.2,29.78,West,270,10.4,-999.0,74,-99.99,,,0.00,Acu-Link.com,2013-03-15 16:12:00,
2013-03-15 12:31:00,42.8,35.8,29.77,WSW,247,9.9,-999.0,76,-99.99,,,0.00,Acu-Link.com,2013-03-15 16:31:00,
2013-03-15 12:57:00,42.6,36.6,29.76,NNW,337,12.5,-999.0,79,-99.99,,,0.00,Acu-Link.com,2013-03-15 16:57:00,
2013-03-15 13:16:00,43.7,38.3,29.75,WNW,292,10.4,-999.0,81,-99.99,,,0.00,Acu-Link.com,2013-03-15 17:16:00,
2013-03-15 13:32:00,43.3,38.2,29.74,WNW,292,11.4,-999.0,82,-99.99,,,0.00,Acu-Link.com,2013-03-15 17:32:00,
2013-03-15 13:48:00,44.1,39.3,29.73,SE,135,10.9,-999.0,83,-99.99,,,0.00,Acu-Link.com,2013-03-15 17:48:00,
2013-03-15 14:07:00,44.8,40.0,29.72,WSW,247,7.8,-999.0,83,-99.99,,,0.00,Acu-Link.com,2013-03-15 18:07:00,
2013-03-15 14:29:00,45.1,40.6,29.71,SW,225,2.2,-999.0,84,-99.99,,,0.00,Acu-Link.com,2013-03-15 18:29:00,
2013-03-15 14:49:00,45.7,41.1,29.70,West,270,5.8,-999.0,84,-99.99,,,0.00,Acu-Link.com,2013-03-15 18:49:00,
2013-03-15 15:28:00,45.0,41.4,29.70,WNW,292,5.8,-999.0,87,-99.99,,,0.00,Acu-Link.com,2013-03-15 19:28:00,
2013-03-15 15:43:00,45.1,41.2,29.70,WSW,247,11.9,-999.0,86,-99.99,,,0.00,Acu-Link.com,2013-03-15 19:43:00,
2013-03-15 16:00:00,45.0,40.8,29.69,NNW,337,6.3,-999.0,85,-99.99,,,0.00,Acu-Link.com,2013-03-15 20:00:00,
2013-03-15 16:34:00,45.3,41.1,29.69,SW,225,1.1,-999.0,85,-99.99,,,0.00,Acu-Link.com,2013-03-15 20:34:00,
2013-03-15 16:55:00,45.7,41.8,29.68,SW,225,1.1,-999.0,86,-99.99,,,0.00,Acu-Link.com,2013-03-15 20:55:00,
2013-03-15 17:26:00,45.7,41.8,29.69,WSW,247,0.0,-999.0,86,-99.99,,,0.00,Acu-Link.com,2013-03-15 21:26:00,
2013-03-15 17:44:00,45.7,41.8,29.69,West,270,8.3,-999.0,86,-99.99,,,0.00,Acu-Link.com,2013-03-15 21:44:00,
2013-03-15 18:01:00,45.5,42.2,29.69,SW,225,10.4,-999.0,88,-99.99,,,0.00,Acu-Link.com,2013-03-15 22:01:00,
2013-03-15 18:18:00,45.5,42.2,29.69,SE,135,2.7,-999.0,88,-99.99,,,0.00,Acu-Link.com,2013-03-15 22:18:00,
2013-03-15 18:36:00,45.5,42.2,29.68,SSW,202,0.0,-999.0,88,-99.99,,,0.00,Acu-Link.com,2013-03-15 22:36:00,
2013-03-15 18:53:00,45.3,42.3,29.68,SW,225,1.7,-999.0,89,-99.99,,,0.00,Acu-Link.com,2013-03-15 22:53:00,
2013-03-15 19:10:00,45.0,42.5,29.69,NW,315,0.0,-999.0,91,-99.99,,,0.00,Acu-Link.com,2013-03-15 23:10:00,
2013-03-15 19:29:00,44.6,42.4,29.69,West,270,0.0,-999.0,92,-99.99,,,0.00,Acu-Link.com,2013-03-15 23:29:00,
2013-03-15 19:53:00,44.4,43.1,29.69,ESE,112,0.0,-999.0,95,-99.99,,,0.00,Acu-Link.com,2013-03-15 23:53:00,
2013-03-15 20:10:00,44.4,43.9,29.69,SSW,202,0.0,-999.0,98,-99.99,,,0.00,Acu-Link.com,2013-03-16 00:10:00,
2013-03-15 20:26:00,44.4,43.9,29.69,WNW,292,0.0,-999.0,98,-99.99,,,0.00,Acu-Link.com,2013-03-16 00:26:00,
2013-03-15 20:43:00,44.1,43.6,29.69,West,270,0.0,-999.0,98,-99.99,,,0.00,Acu-Link.com,2013-03-16 00:43:00,
2013-03-15 21:12:00,43.9,43.4,29.69,WNW,292,0.0,-999.0,98,-99.99,,,0.00,Acu-Link.com,2013-03-16 01:12:00,
2013-03-15 21:29:00,42.8,42.3,29.70,West,270,0.0,-999.0,98,-99.99,,,0.00,Acu-Link.com,2013-03-16 01:29:00,
2013-03-15 21:45:00,42.4,41.9,29.70,NW,315,0.0,-999.0,98,-99.99,,,0.00,Acu-Link.com,2013-03-16 01:45:00,
2013-03-15 22:04:00,41.9,41.4,29.71,WSW,247,2.7,-999.0,98,-99.99,,,0.00,Acu-Link.com,2013-03-16 02:04:00,
2013-03-15 22:19:00,41.2,40.7,29.71,SW,225,6.8,-999.0,98,-99.99,,,0.00,Acu-Link.com,2013-03-16 02:19:00,
2013-03-15 22:37:00,40.5,40.0,29.72,WNW,292,3.2,-999.0,98,-99.99,,,0.00,Acu-Link.com,2013-03-16 02:37:00,
2013-03-15 22:57:00,39.2,38.7,29.72,West,270,4.2,-999.0,98,-99.99,,,0.00,Acu-Link.com,2013-03-16 02:57:00,
2013-03-15 23:18:00,39.0,38.5,29.72,WSW,247,2.7,-999.0,98,-99.99,,,0.00,Acu-Link.com,2013-03-16 03:18:00,
2013-03-15 23:34:00,37.9,37.4,29.72,WSW,247,2.2,-999.0,98,-99.99,,,0.00,Acu-Link.com,2013-03-16 03:34:00,
2013-03-15 23:53:00,37.6,37.1,29.71,WSW,247,0.0,-999.0,98,-99.99,,,0.00,Acu-Link.com,2013-03-16 03:53:00,